RYR1JG LIME-EGPH

Flight info

Callsign RYR1JG
Flight time N/A
Altitude 38000
Route ARLES DCT PUNSA DCT IBODI DCT GOTED DCT TRO DCT CLM DCT KOPOR DCT VESAN DCT RATUK DCT SOVAT L613 LEHOC DCT INPIP
Aircraft B738/M-SDE3FGILRWY/SB1

Departure

Time 2026-05-05 19:25
Airport Il Caravaggio International Airport (LIME)

Arrival

Time N/A
Airport Edinburgh Airport (EGPH)
Time Latitude Longitude Altitude Speed Heading
2026-05-05 18:30 45.66672 9.69862 786 ft 0 kts 195°
2026-05-05 19:14 45.66687 9.69868 786 ft 4 kts 195°
2026-05-05 19:14 45.66714 9.69878 786 ft 4 kts 195°
2026-05-05 19:14 45.66735 9.69886 786 ft 4 kts 188°
2026-05-05 19:15 45.66758 9.69881 786 ft 4 kts 132°
2026-05-05 19:15 45.66770 9.69849 786 ft 3 kts 105°
2026-05-05 19:15 45.66771 9.69845 786 ft 2 kts 105°
2026-05-05 19:19 45.66771 9.69848 786 ft 1 kts 105°
2026-05-05 19:19 45.66766 9.69871 786 ft 4 kts 105°
2026-05-05 19:19 45.66759 9.69909 786 ft 5 kts 105°
2026-05-05 19:19 45.66745 9.69982 786 ft 10 kts 105°
2026-05-05 19:20 45.66723 9.70099 786 ft 15 kts 103°
2026-05-05 19:20 45.66695 9.70254 786 ft 17 kts 104°
2026-05-05 19:20 45.66664 9.70426 786 ft 18 kts 105°
2026-05-05 19:20 45.66631 9.70601 786 ft 18 kts 105°
2026-05-05 19:21 45.66599 9.70770 786 ft 17 kts 104°
2026-05-05 19:21 45.66569 9.70934 786 ft 17 kts 105°
2026-05-05 19:21 45.66537 9.71099 786 ft 17 kts 109°
2026-05-05 19:21 45.66493 9.71259 786 ft 17 kts 104°
2026-05-05 19:22 45.66464 9.71417 786 ft 16 kts 105°
2026-05-05 19:22 45.66439 9.71570 786 ft 16 kts 94°
2026-05-05 19:22 45.66456 9.71716 786 ft 15 kts 74°
2026-05-05 19:22 45.66471 9.71858 786 ft 14 kts 97°
2026-05-05 19:23 45.66447 9.71999 786 ft 15 kts 104°
2026-05-05 19:23 45.66418 9.72157 786 ft 17 kts 104°
2026-05-05 19:23 45.66387 9.72330 786 ft 18 kts 104°
2026-05-05 19:23 45.66381 9.72449 786 ft 8 kts 55°
2026-05-05 19:24 45.66432 9.72454 786 ft 9 kts 334°
2026-05-05 19:24 45.66470 9.72381 786 ft 10 kts 285°
2026-05-05 19:24 45.66533 9.72041 786 ft 71 kts 285°
2026-05-05 19:24 45.66721 9.71026 786 ft 138 kts 284°
2026-05-05 19:25 45.67009 9.69485 1027 ft 171 kts 286°
2026-05-05 19:25 45.67321 9.67789 1747 ft 182 kts 277°
2026-05-05 19:25 45.67119 9.65944 2379 ft 193 kts 244°
2026-05-05 19:25 45.66694 9.64160 3376 ft 190 kts 263°
2026-05-05 19:26 45.66634 9.62295 4337 ft 187 kts 266°
2026-05-05 19:26 45.66606 9.60410 5147 ft 190 kts 267°
2026-05-05 19:26 45.66587 9.58439 5612 ft 210 kts 267°
2026-05-05 19:26 45.66555 9.56229 5824 ft 234 kts 266°
2026-05-05 19:27 45.66512 9.53846 6366 ft 243 kts 266°
2026-05-05 19:27 45.66461 9.51407 7178 ft 247 kts 265°
2026-05-05 19:27 45.66498 9.48913 7869 ft 261 kts 279°
2026-05-05 19:27 45.67058 9.46361 8476 ft 275 kts 287°
2026-05-05 19:28 45.67726 9.43782 9298 ft 279 kts 288°
2026-05-05 19:28 45.68405 9.41152 9900 ft 283 kts 287°
2026-05-05 19:28 45.69087 9.38467 10476 ft 296 kts 287°
2026-05-05 19:28 45.69807 9.35571 10581 ft 322 kts 287°
2026-05-05 19:29 45.70554 9.32533 11160 ft 332 kts 287°
2026-05-05 19:29 45.71319 9.29402 11979 ft 334 kts 286°
2026-05-05 19:29 45.72103 9.26252 12847 ft 336 kts 288°
2026-05-05 19:29 45.72990 9.23138 13700 ft 339 kts 290°
2026-05-05 19:30 45.73914 9.20058 14404 ft 343 kts 290°
2026-05-05 19:30 45.74867 9.16909 15103 ft 347 kts 290°
2026-05-05 19:30 45.75809 9.13788 15801 ft 350 kts 289°
2026-05-05 19:30 45.76789 9.10514 16529 ft 354 kts 289°
2026-05-05 19:31 45.77758 9.07253 17225 ft 358 kts 289°
2026-05-05 19:31 45.78733 9.03955 17898 ft 362 kts 289°
2026-05-05 19:31 45.79718 9.00610 18540 ft 366 kts 288°
2026-05-05 19:31 45.80708 8.97236 19161 ft 368 kts 288°
2026-05-05 19:32 45.81703 8.93843 19767 ft 371 kts 288°
2026-05-05 19:32 45.82705 8.90412 20353 ft 375 kts 288°
2026-05-05 19:32 45.83717 8.86947 20943 ft 378 kts 288°
2026-05-05 19:32 45.84734 8.83454 21528 ft 381 kts 288°
2026-05-05 19:33 45.85759 8.79932 22092 ft 384 kts 287°
2026-05-05 19:33 45.86791 8.76382 22649 ft 388 kts 287°
2026-05-05 19:33 45.87834 8.72801 23206 ft 389 kts 287°
2026-05-05 19:33 45.88873 8.69213 23687 ft 393 kts 287°
2026-05-05 19:34 45.89922 8.65579 24093 ft 397 kts 287°
2026-05-05 19:34 45.90980 8.61916 24586 ft 398 kts 287°
2026-05-05 19:34 45.92039 8.58244 25063 ft 399 kts 287°
2026-05-05 19:35 45.94170 8.50845 25935 ft 403 kts 287°
2026-05-05 19:35 45.95239 8.47118 26359 ft 405 kts 287°
2026-05-05 19:35 45.96306 8.43398 26749 ft 407 kts 286°
2026-05-05 19:35 45.97384 8.39633 27150 ft 408 kts 287°
2026-05-05 19:36 45.98463 8.35860 27508 ft 409 kts 287°
2026-05-05 19:36 45.99544 8.32066 27870 ft 411 kts 285°
2026-05-05 19:36 46.00630 8.28260 28282 ft 412 kts 285°
2026-05-05 19:36 46.01717 8.24441 28631 ft 413 kts 285°
2026-05-05 19:37 46.02804 8.20609 28996 ft 415 kts 285°
2026-05-05 19:37 46.03898 8.16757 29317 ft 417 kts 285°
2026-05-05 19:37 46.04980 8.12941 29697 ft 418 kts 285°
2026-05-05 19:37 46.06078 8.09063 30042 ft 419 kts 285°
2026-05-05 19:38 46.07179 8.05159 30276 ft 422 kts 285°
2026-05-05 19:38 46.08379 8.01275 30493 ft 429 kts 291°
2026-05-05 19:38 46.09900 7.97555 30789 ft 431 kts 294°